"Pseudo-MPEC" for P12oImJ

Created 2026 Jul 28 21:35:09 UT using Find_Orb

Click here for an explanation of pseudo-MPECs

 
 Astrometry: 
     P12oImJ*0C2026 07 27.48649723 07 49.590+13 35 11.86   ~7RDo 20.44iXNEOCPF51
     P12oImJ 0C2026 07 27.49841223 07 50.613+13 35 19.86   ~7RDo 20.57iXNEOCPF51
     P12oImJ 0C2026 07 27.51041123 07 51.657+13 35 27.88   ~7RDo 20.66iXNEOCPF51
     P12oImJ 0C2026 07 27.52255723 07 52.697+13 35 35.89   ~7RDo 20.61iXNEOCPF51
     P12oImJ 0C2026 07 27.59550023 07 59.003+13 36 23.86   ~7RL5 20.53GVNEOCPF52
     P12oImJ 0C2026 07 27.59613323 07 59.054+13 36 24.32   ~7RL5 20.55GVNEOCPF52
     P12oImJ 0C2026 07 28.52258823 09 24.338+13 46 26.34   ~7SH5 20.36GVNEOCPF52
     P12oImJ 0C2026 07 28.52339523 09 24.424+13 46 26.92   ~7SH5 20.46GVNEOCPF52

Station data:
(F51) Pan-STARRS 1, Haleakala  (N20.707234 W156.255910)  US/Hawaii.
   Observers J. Herman, T. Lowe, P. Minguez, A. Schultz, I. Smith. Measurers
   K. Chambers, T. de Boer, J. Fairlamb, H. Gao, M. Huber, C.-C. Lin, E.
   Magnier, Y. Ramanjooloo, R. Wainscoat, R. Weryk. 1.8-m Ritchey-Chrétien +
   CCD.
(F52) Pan-STARRS 2, Haleakala  (N20.707382 W156.255910)  US/Hawaii.
   Observers J. Herman, T. Lowe, P. Minguez, A. Schultz, I. Smith. Measurers
   K. Chambers, T. de Boer, J. Fairlamb, H. Gao, M. Huber, C.-C. Lin, E.
   Magnier, Y. Ramanjooloo, R. Wainscoat, R. Weryk. 1.8-m Ritchey-Chrétien +
   CCD.

Orbital elements:  P12oImJ
   Perihelion 2026 Oct 1.962143 +/- 27.2 TT = 23:05:29.1 (JD 2461315.462143)
Epoch 2026 Jul 28.0 TT = JDT 2461249.5   Earth MOID: 0.3581   Ma: 0.0475
M 345.335718795 +/- 7               (J2000 ecliptic)             AutoNEOCP
n   0.222313597 +/- 0.0596          Peri.  176.892982 +/- 29
a   2.698725411 +/- 0.482           Node   192.251925 +/- 8
e   0.49646103 +/- 0.0804           Incl.    9.939723 +/- 1.3
P   4.43341                H 19.47  G  0.15   U 10.9  SR
q 1.358913391 +/- 0.0887    Q 4.038537431 +/- 1.02
From 8 observations 2026 July 27-28 (24.9 hr); mean residual 0".07
Residuals in arcseconds: 
260727 F51  .14+  .10-    260727 F51  .09-  .01-    260728 F52  .11-  .04-    
260727 F51  .01-  .03-    260727 F52  .03-  .04+    260728 F52  .13+  .02+    
260727 F51  .06+  .03+    260727 F52  .09-  .08+    

Ephemerides (geocentric):
Date (UTC) HH   RA             Dec           delta  r     elong  mag " sig PA
---- --------  ------------   ------------  ------ ------ -----  --- --------
2026 07 28 22  23 10 00.279   +13 50 39.82  .65084 1.5121 129.0 20.8 3.18 115
2026 07 28 23  23 10 04.092   +13 51 06.30  .65050 1.5120 129.0 20.8 3.61 115
2026 07 29 00  23 10 07.905   +13 51 32.75  .65016 1.5118 129.1 20.8 4.06 116
2026 07 29 01  23 10 11.718   +13 51 59.17  .64981 1.5116 129.1 20.8 4.53 116
2026 07 29 02  23 10 15.530   +13 52 25.56  .64947 1.5114 129.1 20.8 5.02 116
2026 07 29 03  23 10 19.343   +13 52 51.92  .64912 1.5113 129.1 20.8 5.53 116
2026 07 29 04  23 10 23.155   +13 53 18.25  .64878 1.5111 129.1 20.8 6.06 116
2026 07 29 05  23 10 26.966   +13 53 44.55  .64844 1.5109 129.2 20.8 6.61 116
2026 07 29 06  23 10 30.778   +13 54 10.82  .64809 1.5107 129.2 20.8 7.18 116
2026 07 29 07  23 10 34.589   +13 54 37.07  .64775 1.5105 129.2 20.8 7.77 116
2026 07 29 08  23 10 38.400   +13 55 03.28  .64741 1.5104 129.2 20.8 8.38 117
2026 07 29 09  23 10 42.211   +13 55 29.47  .64706 1.5102 129.2 20.8 9.02 117
2026 07 29 10  23 10 46.021   +13 55 55.62  .64672 1.5100 129.3 20.8 9.67 117
2026 07 29 11  23 10 49.831   +13 56 21.74  .64638 1.5098 129.3 20.8 10.3 117
2026 07 29 12  23 10 53.641   +13 56 47.84  .64604 1.5096 129.3 20.8 11.0 117
2026 07 29 13  23 10 57.451   +13 57 13.91  .64570 1.5095 129.3 20.8 11.7 117
2026 07 29 14  23 11 01.260   +13 57 39.94  .64535 1.5093 129.3 20.8 12.5 117
2026 07 29 15  23 11 05.070   +13 58 05.95  .64501 1.5091 129.4 20.8 13.2 117
2026 07 29 16  23 11 08.879   +13 58 31.92  .64467 1.5089 129.4 20.8 14.0 117
2026 07 29 17  23 11 12.687   +13 58 57.87  .64433 1.5088 129.4 20.7 14.8 117
2026 07 29 18  23 11 16.496   +13 59 23.78  .64399 1.5086 129.4 20.7 15.6 117
2026 07 29 19  23 11 20.304   +13 59 49.67  .64365 1.5084 129.4 20.7 16.4 117
2026 07 29 20  23 11 24.112   +14 00 15.52  .64331 1.5082 129.5 20.7 17.3 117
2026 07 29 21  23 11 27.919   +14 00 41.35  .64297 1.5080 129.5 20.7 18.2 117
2026 07 29 22  23 11 31.727   +14 01 07.15  .64263 1.5079 129.5 20.7 19.0 117
2026 07 29 23  23 11 35.534   +14 01 32.91  .64229 1.5077 129.5 20.7 20.0 117
2026 07 30 00  23 11 39.341   +14 01 58.64  .64195 1.5075 129.5 20.7 20.9 117
2026 07 30 01  23 11 43.147   +14 02 24.35  .64161 1.5073 129.6 20.7 21.8 117
2026 07 30 02  23 11 46.954   +14 02 50.02  .64127 1.5072 129.6 20.7 22.8 117
2026 07 30 03  23 11 50.760   +14 03 15.66  .64093 1.5070 129.6 20.7 23.8 117
2026 07 30 04  23 11 54.566   +14 03 41.28  .64059 1.5068 129.6 20.7 24.8 117
2026 07 30 05  23 11 58.371   +14 04 06.86  .64025 1.5066 129.6 20.7 25.9 117
2026 07 30 06  23 12 02.176   +14 04 32.41  .63991 1.5064 129.7 20.7 26.9 117
2026 07 30 07  23 12 05.981   +14 04 57.93  .63957 1.5063 129.7 20.7 28.0 117
2026 07 30 08  23 12 09.786   +14 05 23.42  .63923 1.5061 129.7 20.7 29.1 117
2026 07 30 09  23 12 13.591   +14 05 48.88  .63889 1.5059 129.7 20.7 30.2 117
2026 07 30 10  23 12 17.395   +14 06 14.31  .63856 1.5057 129.7 20.7 31.3 117
2026 07 30 11  23 12 21.199   +14 06 39.70  .63822 1.5056 129.8 20.7 32.5 117
2026 07 30 12  23 12 25.003   +14 07 05.07  .63788 1.5054 129.8 20.7 33.7 117
2026 07 30 13  23 12 28.806   +14 07 30.40  .63754 1.5052 129.8 20.7 34.9 117
2026 07 30 14  23 12 32.609   +14 07 55.71  .63721 1.5050 129.8 20.7 36.1 117
2026 07 30 15  23 12 36.412   +14 08 20.98  .63687 1.5049 129.8 20.7 37.3 117
2026 07 30 16  23 12 40.215   +14 08 46.22  .63653 1.5047 129.9 20.7 38.6 117
2026 07 30 17  23 12 44.017   +14 09 11.43  .63619 1.5045 129.9 20.7 39.9 117
2026 07 30 18  23 12 47.819   +14 09 36.61  .63586 1.5043 129.9 20.7 41.2 117
2026 07 30 19  23 12 51.621   +14 10 01.76  .63552 1.5041 129.9 20.7 42.5 117
2026 07 30 20  23 12 55.423   +14 10 26.87  .63518 1.5040 129.9 20.7 43.8 117
2026 07 30 21  23 12 59.224   +14 10 51.96  .63485 1.5038 130.0 20.7 45.2 117